Location: Unspecified
(52.4292°N, 19.3359°E)
Time: 22:04:32
(UTC+02:00)

Explorer 7 - Visible Passes

Search period start: 27 May 2024 00:00
Search period end: 06 June 2024 00:00
Orbit: 467 x 625 km, 50.3° (Epoch: 26 May)

Date Brightness Start Highest point End Pass type
(mag) Time Alt. Az. Time Alt. Az. Time Alt. Az.
27 May 6.7 01:28:59 10° W 01:32:48 58° S 01:36:50 10° ESE visible
27 May 7.7 03:08:43 10° W 03:12:07 27° SSW 03:15:41 10° SSE visible
27 May 7.3 22:03:45 10° SW 22:07:02 30° SSE 22:10:26 10° E visible
27 May 6.5 23:42:37 10° WSW 23:46:21 61° S 23:50:16 10° E visible
28 May 6.7 01:22:05 10° W 01:25:52 53° SSW 01:29:51 10° ESE visible
28 May 7.9 03:01:57 10° W 03:05:07 23° SSW 03:08:23 10° SSE visible
28 May 7.1 21:56:38 10° SW 22:00:02 35° SSE 22:03:33 10° E visible
28 May 6.5 23:35:41 10° WSW 23:39:24 64° S 23:43:19 10° E visible
29 May 6.8 01:15:11 10° W 01:18:55 48° SSW 01:22:50 10° ESE visible
29 May 8.1 02:55:14 10° W 02:58:04 19° SW 03:01:00 10° S visible
29 May 7.0 21:49:32 10° SW 21:53:02 40° SSE 21:56:38 10° E visible
29 May 6.5 23:28:44 10° W 23:32:27 64° S 23:36:22 10° E visible
30 May 7.0 01:08:16 10° W 01:11:55 42° SSW 01:15:45 10° SE visible
30 May 8.3 02:48:37 10° WSW 02:50:59 15° SW 02:51:21 15° SSW visible
30 May 6.8 21:42:28 10° WSW 21:46:01 46° SSE 21:49:41 10° E visible
30 May 6.5 23:21:46 10° W 23:25:29 64° S 23:29:22 10° ESE visible
31 May 7.2 01:01:20 10° W 01:04:54 37° SSW 01:06:17 27° SSE visible
31 May 6.6 23:14:47 10° W 23:18:28 61° S 23:22:20 10° ESE visible
01 Jun 7.4 00:54:25 10° W 00:57:51 32° SSW 00:58:15 31° SSW visible
01 Jun 6.6 23:07:46 10° W 23:11:27 58° S 23:15:09 11° ESE visible
02 Jun 7.7 00:47:29 10° W 00:50:39 27° SSW 00:50:39 27° SSW visible
02 Jun 6.7 23:00:46 10° W 23:04:25 53° SSW 23:07:42 13° ESE visible
03 Jun 8.0 00:40:36 10° W 00:43:12 22° SW 00:43:12 22° SW visible
03 Jun 6.8 22:53:44 10° W 22:57:20 48° SSW 23:00:20 15° SE visible
04 Jun 8.3 00:33:45 10° W 00:35:51 18° SW 00:35:51 18° SW visible
04 Jun 7.0 22:46:41 10° W 22:50:14 43° SSW 22:53:02 16° SE visible
05 Jun 8.6 00:27:00 10° WSW 00:28:33 15° SW 00:28:33 15° SW visible
05 Jun 7.2 22:39:38 10° W 22:43:05 37° SSW 22:45:46 16° SE visible
